Weather History for KBTM - October, 2011

Change the Weather History Date:

Saturday, October 1, 2011

  Actual Average Record
Temperature  
Mean Temperature 60 °F 46 °F  
Max Temperature 81 °F 61 °F 83 °F (1992)
Min Temperature 38 °F 31 °F 12 °F (1950)
Degree Days  
Heating Degree Days 5 19  
Month to date heating degree days 5 19  
Since 1 July heating degree days 439 640  
Cooling Degree Days 0 0  
Month to date cooling degree days 0 0  
Year to date cooling degree days 48 81  
Growing Degree Days 10 (Base 50)    
Moisture  
Dew Point 33 °F    
Average Humidity 43    
Maximum Humidity 70    
Minimum Humidity 16    
Precipitation  
Precipitation T in 0.03 in 0.75 in (1900)
Month to date precipitation T 0.03  
Year to date precipitation 10.57 10.91  
Sea Level Pressure  
Sea Level Pressure 29.94 in    
Wind  
Wind Speed 7 mph (South)    
Max Wind Speed 31 mph    
Max Gust Speed 47 mph    
Visibility 10 miles    
Events Rain , Thunderstorm    
T = Trace of Precipitation, MM = Missing Value Source: NWS Daily Summary

Daily Weather History Graph

Daily Weather History Graph

Search for Another Location

Airport or City:

Trip Planner

Search our weather history database for the weather conditions in past years. The results will help you decide how hot, cold, wet, or windy it might be!

Date:

Astronomy

Oct. 01, 2011 Rise Set
Actual Time 7:28 AM MDT 7:10 PM MDT
Civil Twilight 6:58 AM MDT 7:40 PM MDT
Nautical Twilight 6:23 AM MDT 8:14 PM MDT
Astronomical Twilight 5:48 AM MDT 8:49 PM MDT
Moon 12:57 PM MDT (10/1) 9:52 PM MDT (10/1)
Length of Visible Light 12h 41m
Length of Day
11h 42m
Waxing Crescent, 25% of the Moon is Illuminated
Oct 1
Waxing Crescent
Oct 3
First Quarter
Oct 11
Full
Oct 19
Last Quarter
Oct 26
New

Hourly Weather History & Observations

Time (MDT) Temp. Windchill Dew Point Humidity Pressure Visibility Wind Dir Wind Speed Gust Speed Precip Events Conditions
12:53 AM 48.9 °F - 32.0 °F 52% 29.94 in 10.0 mi Calm Calm - N/A   Partly Cloudy
1:53 AM 45.0 °F - 30.0 °F 56% 29.93 in 10.0 mi Calm Calm - N/A   Clear
2:53 AM 43.0 °F 41.3 °F 30.9 °F 62% 29.93 in 10.0 mi SE 3.5 mph - N/A   Clear
3:53 AM 41.0 °F 39.0 °F 30.0 °F 65% 29.93 in 10.0 mi SE 3.5 mph - N/A   Clear
4:53 AM 39.9 °F - 28.9 °F 65% 29.92 in 10.0 mi Calm Calm - N/A   Clear
5:53 AM 39.0 °F - 28.9 °F 67% 29.93 in 10.0 mi Calm Calm - N/A   Clear
6:53 AM 39.9 °F 37.8 °F 30.0 °F 68% 29.94 in 10.0 mi Variable 3.5 mph - N/A   Clear
7:53 AM 39.9 °F 35.8 °F 30.9 °F 70% 29.99 in 10.0 mi ESE 5.8 mph - N/A   Clear
8:53 AM 42.8 °F 41.1 °F 32.0 °F 66% 30.08 in 10.0 mi ESE 3.5 mph - N/A   Clear
9:53 AM 55.9 °F - 33.1 °F 42% 29.98 in 10.0 mi Calm Calm - N/A   Clear
10:53 AM 66.0 °F - 34.0 °F 30% 29.94 in 10.0 mi Calm Calm - N/A   Clear
11:53 AM 73.9 °F - 35.1 °F 24% 29.91 in 10.0 mi North 3.5 mph - N/A   Clear
12:53 PM 80.1 °F - 30.9 °F 17% 29.88 in 10.0 mi South 18.4 mph 24.2 mph N/A   Clear
1:53 PM 80.6 °F - 30.2 °F 16% 30.01 in 10.0 mi SSW 15.0 mph 26.5 mph N/A   Clear
2:29 PM 80.6 °F - 30.2 °F 16% 30.00 in 10.0 mi SSW 13.8 mph 23.0 mph N/A Thunderstorm Partly Cloudy
2:46 PM 78.8 °F - 30.2 °F 17% 30.01 in 10.0 mi South 26.5 mph 33.4 mph N/A   Mostly Cloudy
2:53 PM 75.9 °F - 34.0 °F 22% 29.87 in 10.0 mi WSW 15.0 mph 47.2 mph 0.00 in Rain Light Rain
3:53 PM 77.0 °F - 33.1 °F 20% 29.88 in 10.0 mi South 25.3 mph 34.5 mph 0.00 in   Overcast
4:25 PM 78.8 °F - 33.8 °F 20% 29.99 in 10.0 mi SSE 17.3 mph 26.5 mph 0.00 in   Partly Cloudy
4:53 PM 79.0 °F - 33.1 °F 19% 29.85 in 10.0 mi SSE 12.7 mph - 0.00 in   Clear
5:53 PM 77.0 °F - 30.2 °F 18% 29.98 in 10.0 mi SSW 13.8 mph 25.3 mph N/A   Mostly Cloudy
6:53 PM 73.0 °F - 32.0 °F 22% 29.87 in 10.0 mi WSW 3.5 mph - N/A   Mostly Cloudy
7:53 PM 66.2 °F - 37.4 °F 35% 30.00 in 10.0 mi NW 9.2 mph - N/A   Partly Cloudy
8:53 PM 64.4 °F - 37.4 °F 37% 30.01 in 10.0 mi Calm Calm - N/A   Partly Cloudy
9:53 PM 61.0 °F - 37.0 °F 41% 29.90 in 10.0 mi Calm Calm - N/A   Scattered Clouds
10:53 PM 59.0 °F - 37.0 °F 44% 29.88 in 10.0 mi ENE 4.6 mph - N/A   Partly Cloudy
11:53 PM 60.1 °F - 45.0 °F 57% 29.90 in 10.0 mi South 13.8 mph 19.6 mph 0.00 in   Overcast